RH
38 49 55 53 46 36 29 24 24 25 25 24 25 26 26 28 28 29 30 30 32 31 32 32 36 39 44 46 44 43 40 38 34 26 21 19 19 18 19 19 19 18 18
27 28 30 29 26 25 25 26 26 26 26 28 28 28 27 27 27 28 28 30 34 34 37 43 46 52 49 46 47 41 36 32 26 22 20 19 19 21 18 16 16 16 17
28 25 25 26 27 27 27 28 28 28 28 27 27 26 27 28 30 31 34 39 42 47 53 52 56 55 52 50 43 36 31 27 24 21 21 21 23 17 14 14 14 16 18
31 28 27 29 29 30 29 28 28 27 28 29 29 30 32 34 37 42 47 54 58 61 61 60 58 55 53 44 37 32 28 25 25 24 25 25 20 14 14 14 15 16 18
35 34 31 31 32 31 30 30 30 32 32 33 36 38 43 46 52 60 63 67 71 69 66 58 57 57 52 42 34 27 24 29 28 28 31 25 21 17 16 15 12 11 12
36 35 35 33 32 33 34 34 36 39 41 43 46 51 58 70 74 74 76 77 74 72 67 58 60 56 45 33 27 26 29 29 32 35 31 30 22 20 18 12 12 17 17
49 45 39 37 37 39 39 41 43 46 45 48 57 71 85 88 85 83 80 75 73 70 65 69 51 37 32 27 27 29 31 34 40 42 35 31 24 25 27 32 32 36 41
38 40 42 40 38 36 37 40 47 53 54 63 79 97 95 90 88 81 79 74 70 69 61 46 39 35 29 26 28 31 39 40 46 49 38 34 26 27 37 43 48 54 64
35 31 33 36 36 36 40 46 53 64 76 87 100 98 90 87 81 82 76 70 63 50 38 37 32 28 27 25 29 34 32 40 54 52 42 38 32 33 38 48 56 60 62
31 32 32 35 42 51 64 75 81 89 93 100 99 87 85 84 78 74 64 56 47 40 35 31 30 32 30 31 33 29 31 50 65 55 43 42 40 41 42 44 52 64 68
44 50 58 68 79 94 99 98 99 100 100 93 82 82 82 82 78 70 62 43 36 34 34 31 32 31 36 35 29 27 34 58 73 59 49 46 50 54 52 54 53 52 58
100 97 98 100 100 100 100 100 100 100 95 79 84 86 85 78 66 50 38 35 36 31 32 34 35 38 37 32 28 30 48 65 74 64 58 51 61 58 65 62 60 59 58
97 100 100 100 100 100 100 100 100 89 83 81 83 62 53 42 39 40 44 40 34 34 34 36 38 35 32 31 32 38 57 75 70 65 64 55 72 70 65 67 68 66 65
99 100 100 100 100 100 100 100 90 70 53 53 52 50 45 44 43 43 46 40 42 40 37 36 34 33 31 33 36 43 51 63 68 65 71 72 78 78 81 89 86 87 81
100 100 100 95 86 82 71 61 53 51 60 58 50 47 47 51 52 60 59 51 48 46 44 41 39 42 41 41 39 42 47 56 61 65 72 78 82 84 81 84 84 91 90
59 62 72 76 61 57 51 52 50 54 55 52 52 71 72 72 62 60 66 67 70 64 64 60 59 56 57 62 56 56 55 54 58 59 61 69 82 81 90 87 90 84 85
44 49 58 66 70 70 82 87 86 87 85 79 78 74 74 76 76 80 78 80 80 82 84 84 83 78 71 66 72 79 74 68 66 67 67 67 70 77 97 95 95 95 86
73 68 67 68 68 69 69 71 71 70 71 72 75 79 83 86 85 88 94 93 89 84 79 79 80 84 83 77 73 73 74 75 78 78 80 80 80 81 80 76 74 87 88
63 70 82 86 83 84 76 72 71 72 76 80 82 87 94 97 93 93 95 86 81 89 92 95 96 88 85 80 86 97 92 82 74 77 78 75 76 70 68 74 84 84 77
50 49 52 56 59 61 64 63 68 69 69 71 78 82 91 94 99 98 94 90 88 80 82 81 84 90 89 90 95 93 93 82 88 80 87 89 87 84 87 87 81 84 91
70 76 79 85 88 84 82 85 75 70 73 80 73 76 89 89 91 100 97 90 84 83 87 88 94 99 95 92 86 79 86 79 77 92 88 72 62 60 62 71 78 88 94
71 76 86 86 78 77 89 98 94 84 75 82 78 82 83 87 87 81 81 83 85 88 78 92 94 88 80 78 72 72 62 57 61 59 66 73 75 73 61 57 60 59 64
63 60 68 76 92 92 78 74 72 73 73 76 71 68 73 73 72 73 81 72 79 79 79 80 79 87 74 60 57 58 47 42 38 39 44 48 51 49 43 51 52 57 60
64 68 71 70 71 70 70 68 66 62 66 69 69 70 74 77 71 72 71 70 67 70 71 68 68 63 56 44 35 29 25 23 24 25 25 28 34 36 36 34 34 35 37
62 63 62 64 70 75 78 73 69 65 62 62 73 79 76 76 79 75 72 65 61 57 56 52 48 40 36 33 25 21 20 19 19 20 20 21 23 23 22 22 23 23 23
64 62 66 72 78 78 74 67 66 67 72 75 80 86 84 83 88 90 90 78 68 63 54 47 40 33 27 23 22 18 17 17 18 18 17 17 18 18 19 18 18 18 18
Wind_Speed
48 49 49 49 50 48 46 45 46 46 46 47 48 49 49 50 52 54 56 59 60 62 65 67 68 69 71 71 71 73 76 81 86 91 95 91 72 66 67 67 66 64 61
50 49 48 49 49 48 48 49 49 49 49 51 52 52 54 55 58 60 61 64 64 66 67 68 70 71 71 70 71 75 80 86 91 94 87 73 68 69 68 66 62 59 57
54 53 51 51 51 51 51 52 53 53 54 55 56 57 59 61 62 63 65 66 67 68 70 71 72 71 70 72 75 80 85 89 92 86 73 65 67 68 64 59 56 54 53
58 56 54 54 55 55 56 56 57 57 58 59 60 62 64 65 66 65 67 68 69 71 72 72 72 71 72 76 80 85 90 89 85 72 63 62 64 63 58 55 52 51 50
59 59 58 58 58 59 59 59 60 61 63 64 65 66 66 67 68 68 70 71 72 72 73 73 71 73 76 80 84 88 88 83 71 60 56 54 59 59 57 52 43 39 38
62 62 62 61 61 61 62 63 64 65 67 67 69 68 68 69 71 71 72 72 73 73 73 73 74 76 81 84 87 88 83 69 58 53 49 50 54 50 43 36 31 27 26
64 65 67 67 66 65 66 67 67 68 69 70 70 70 71 72 73 73 73 73 74 73 74 76 80 82 85 87 88 83 66 59 52 45 43 45 43 39 33 31 29 25 21
69 70 71 70 69 70 70 71 70 70 71 72 73 73 75 75 74 74 73 73 73 75 77 81 85 87 90 90 81 65 61 57 44 39 38 39 37 33 32 28 29 27 20
73 72 73 73 73 73 74 74 73 72 73 74 75 77 76 75 74 73 72 74 77 80 83 86 89 91 89 78 65 63 58 48 37 34 34 35 33 31 31 30 26 24 24
75 74 75 76 75 75 75 74 74 74 75 76 79 77 74 73 73 74 77 80 81 84 88 91 91 87 77 64 63 56 50 37 32 32 31 30 30 30 29 29 27 23 20
75 75 74 74 74 74 74 74 76 76 78 81 78 75 75 76 78 81 82 85 87 90 92 89 84 74 62 62 54 49 42 32 31 29 29 29 28 28 28 27 27 26 26
71 70 71 71 73 74 75 76 78 79 81 77 76 77 80 82 84 87 89 92 93 92 89 81 69 60 57 50 45 43 35 31 30 29 31 27 27 25 25 25 26 26 26
69 69 71 71 73 75 76 78 80 79 77 79 81 83 85 87 90 93 92 90 90 81 68 60 58 53 44 41 39 35 30 29 31 31 32 31 29 28 28 29 28 27 28
69 70 71 73 74 76 78 78 80 80 82 85 86 88 91 91 91 86 82 78 67 63 59 52 47 44 42 40 36 31 29 31 34 36 36 35 35 34 33 33 32 32 32
67 69 72 73 75 77 79 81 84 87 87 89 92 92 87 76 67 61 60 59 55 55 52 51 47 45 43 42 41 39 37 38 40 41 42 42 41 41 40 39 39 37 37
73 74 75 79 81 83 85 87 87 86 86 78 72 65 66 62 63 65 62 60 59 59 56 55 53 49 48 47 45 44 46 47 49 50 49 48 48 49 48 48 47 45 44
67 66 63 61 61 63 62 62 65 65 66 67 68 69 69 69 69 68 68 68 68 67 65 63 62 60 58 56 54 52 53 55 55 55 56 57 56 54 54 55 55 54 52
40 48 54 58 60 62 62 63 65 67 68 69 70 70 71 72 72 72 72 72 71 70 70 70 69 69 67 66 66 65 65 65 66 65 64 65 66 64 63 64 63 61 58
46 48 49 50 51 54 54 55 59 64 68 71 72 73 73 73 74 75 76 78 79 77 76 76 75 76 74 74 73 73 73 74 75 75 75 75 76 75 73 72 72 69 67
52 53 54 56 59 61 61 62 64 66 67 66 69 75 78 79 80 80 80 80 80 82 85 85 83 82 82 81 80 79 79 80 80 83 83 83 83 83 81 80 79 78 75
58 59 61 64 65 65 66 68 70 72 73 73 75 73 75 80 82 84 84 85 86 87 83 86 89 91 90 92 90 90 90 89 87 87 87 88 89 90 91 91 88 85 84
67 67 67 67 68 70 72 74 77 78 79 81 81 81 79 79 81 85 90 89 88 87 88 88 88 90 93 95 94 96 97 97 97 98 97 96 94 93 94 93 91 91 91
72 73 72 73 74 77 78 79 81 84 85 87 86 85 85 85 85 86 86 91 92 90 90 93 94 97 99 101 99 99 98 97 96 96 96 98 101 100 98 98 96 92 92
75 75 77 78 80 82 85 86 87 88 90 90 89 87 87 87 86 85 86 86 91 92 94 95 96 98 101 103 102 100 96 93 92 89 90 91 94 94 93 94 93 94 93
84 84 84 85 86 88 89 90 91 94 95 92 89 90 89 89 88 89 92 94 96 97 99 100 98 98 97 98 97 95 92 89 89 90 90 88 88 88 88 89 89 88 85
91 92 93 92 92 93 94 95 96 96 94 92 93 94 94 93 97 99 101 104 103 105 106 103 101 99 96 96 97 96 93 92 92 91 91 90 89 89 90 90 89 87 85
Wind_Direction
230 233 237 241 245 249 251 255 260 262 265 267 270 273 276 278 280 283 285 287 289 291 294 296 298 300 301 302 301 302 303 303 303 304 304 307 303 300 297 293 289 286 282
233 234 236 240 245 248 252 256 259 262 265 268 272 275 278 280 282 285 287 290 292 294 296 298 299 301 302 301 302 303 304 304 305 306 307 306 304 302 298 295 291 287 284
235 236 238 243 246 250 253 258 263 266 268 272 274 277 281 283 285 288 291 294 296 297 298 299 300 301 301 303 303 303 304 305 307 308 307 307 305 303 302 298 294 288 283
238 240 242 246 250 254 257 261 264 268 272 275 278 281 284 287 289 292 293 295 295 296 298 299 300 300 301 302 302 302 305 308 308 309 309 310 310 309 308 302 295 289 282
242 245 247 249 254 258 261 264 268 272 276 280 282 284 286 289 291 292 293 294 296 297 298 299 299 299 299 301 303 304 308 309 307 309 311 313 315 313 311 308 302 295 285
246 250 252 254 257 261 266 269 272 276 279 281 283 285 288 289 290 291 292 294 294 295 297 298 298 297 299 301 304 307 308 307 307 309 313 316 318 320 317 316 313 308 296
249 253 256 258 260 263 267 271 274 277 279 281 283 285 287 289 290 291 292 292 293 295 296 296 296 297 299 302 305 307 304 303 305 309 312 317 322 327 335 344 335 329 318
249 252 256 260 265 268 270 272 274 276 279 281 283 286 288 289 289 289 289 291 293 294 294 295 297 299 301 304 306 302 300 299 300 305 311 315 323 338 347 352 353 345 331
252 255 258 261 265 268 271 272 274 276 278 281 283 287 287 286 287 288 290 291 292 293 295 295 297 299 303 305 302 301 298 293 291 298 304 312 325 339 348 351 353 351 342
254 257 260 262 266 269 271 272 273 276 279 281 284 285 284 284 285 287 289 289 293 294 293 295 298 300 302 302 301 300 297 287 284 293 298 311 324 334 341 345 342 338 334
256 259 262 264 267 269 270 271 273 276 279 283 283 283 283 284 285 286 289 291 292 293 295 297 298 298 299 300 299 299 291 278 277 287 294 305 318 328 332 336 336 333 327
258 260 263 265 267 268 270 272 275 278 281 281 281 281 282 284 287 288 290 289 292 296 296 295 294 294 297 297 298 297 284 273 273 282 288 299 309 318 322 327 332 326 323
260 261 263 265 267 269 271 274 276 277 278 279 282 284 285 287 288 288 291 293 294 294 294 293 293 292 292 293 297 293 278 268 272 281 287 295 299 305 308 311 317 318 318
261 263 266 268 270 272 274 274 275 278 280 282 283 284 285 288 289 291 291 293 292 291 292 291 290 291 290 290 290 287 276 272 275 280 284 288 294 297 299 302 303 304 306
264 266 267 269 270 271 274 278 279 279 281 282 283 284 286 286 286 286 287 288 288 289 289 290 290 290 290 290 289 287 280 277 277 279 282 285 287 289 292 294 295 295 295
270 271 272 272 274 276 277 279 279 281 280 282 283 280 281 282 282 284 284 285 286 287 287 286 286 284 283 283 282 281 280 280 279 279 279 280 281 284 287 289 290 291 291
269 269 272 275 277 277 277 278 279 280 282 283 283 283 284 284 285 285 286 287 287 286 285 284 284 283 281 279 277 275 276 276 275 276 277 278 279 279 280 284 285 286 289
277 276 275 276 277 278 277 277 278 279 280 281 282 282 283 284 284 284 284 284 283 284 284 283 281 281 281 279 278 276 275 275 275 275 275 275 276 277 277 278 279 281 282
282 282 280 280 282 284 285 286 285 285 284 283 283 282 282 283 282 281 282 283 281 279 279 279 279 280 279 278 277 276 276 277 276 276 277 276 276 277 277 277 278 278 277
283 283 283 284 283 285 285 286 287 287 289 289 288 282 280 280 281 281 280 281 280 278 277 277 277 277 277 276 275 274 273 274 275 274 274 274 274 274 274 275 276 275 276
282 283 284 284 285 287 287 288 288 288 287 288 288 288 284 280 278 278 279 279 280 279 277 275 274 274 274 275 274 273 273 272 272 271 271 272 273 274 274 273 272 272 273
281 280 281 282 283 284 285 286 287 288 287 288 288 288 284 280 278 276 276 276 276 275 274 274 275 276 275 275 275 275 274 273 271 270 269 270 271 271 272 272 272 271 270
283 282 282 282 282 284 285 285 287 288 286 286 285 285 284 283 279 277 276 275 274 272 272 272 272 272 273 274 275 274 274 274 275 274 272 271 269 269 270 269 268 268 268
285 286 288 287 286 286 286 286 288 290 289 286 286 284 283 281 278 277 275 274 275 275 274 273 272 272 271 273 275 276 276 274 273 272 272 272 271 271 272 272 271 269 269
290 289 289 290 288 287 288 288 287 290 290 287 287 286 284 284 284 283 282 280 279 276 275 275 274 272 272 273 273 274 275 275 273 273 272 272 271 271 270 271 271 270 269
291 291 290 290 289 288 288 290 290 290 290 290 290 289 287 287 286 284 284 282 279 279 279 278 276 275 274 273 274 275 275 274 274 274 274 272 271 270 270 270 270 269 269